Stations météo

réclame
Mon MeteoGroup
Camborne, Grande-Bretagne (3808): Température de l'air & dewpoint: 05.12.2018 07:00:00 - 11.12.2018 07:00:00 (GMT)Camborne, Grande-Bretagne (3808): Température de l'air -20cm & Température de l'air -100cm: 05.12.2018 07:00:00 - 11.12.2018 07:00:00 (GMT)Camborne, Grande-Bretagne (3808): Vitesse du vent & gusts: 05.12.2018 07:00:00 - 11.12.2018 07:00:00 (GMT)Camborne, Grande-Bretagne (3808): Direction du vent: 05.12.2018 07:00:00 - 11.12.2018 07:00:00 (GMT)Camborne, Grande-Bretagne (3808): reduced air pressure: 05.12.2018 07:00:00 - 11.12.2018 07:00:00 (GMT)Camborne, Grande-Bretagne (3808): visibility: 05.12.2018 07:00:00 - 11.12.2018 07:00:00 (GMT)Camborne, Grande-Bretagne (3808): Ensoleillement: 05.12.2018 07:00:00 - 11.12.2018 07:00:00 (GMT)Camborne, Grande-Bretagne (3808): Quantités de précipitations: 05.12.2018 07:00:00 - 11.12.2018 07:00:00 (GMT)
Date & Time tt [°C] td [°C] tt -20cm [°C] tt -100cm [°C] ff [km/h] ff [knt] fx [km/h] fx [knt] dd ppp [hPa] vv [km] sd [min] rr [mm]
11.12.2018 07:00:00 9,9 7,0 - - 13 7 - - SSE 1022,3 22 0 0,0
11.12.2018 06:00:00 9,8 7,4 - - 13 7 - - SSE 1022,9 16 0 0,0
11.12.2018 05:00:00 9,8 6,9 - - 11 6 - - SSE 1023,4 19 0 0,0
11.12.2018 04:00:00 9,7 7,8 - - 11 6 - - SSE 1024,0 16 0 0,0
11.12.2018 03:00:00 9,9 7,0 - - 11 6 - - SSE 1024,8 20 0 0,0
11.12.2018 02:00:00 9,6 7,8 - - 8 4 - - SSE 1025,6 18 0 0,0
11.12.2018 01:00:00 9,7 8,1 - - 11 6 - - SSE 1026,3 16 0 0,0
11.12.2018 00:00:00 9,6 8,0 - - 9 5 - - SSE 1027,1 19 - 0,0
10.12.2018 23:00:00 9,5 8,3 - - 8 4 - - S 1027,5 8 0 0,0
10.12.2018 22:00:00 9,3 8,3 - - 9 5 - - SSE 1027,9 13 0 0,0
10.12.2018 21:00:00 9,2 8,3 - - 9 5 - - SSE 1028,1 13 0 0,0
10.12.2018 20:00:00 9,5 7,8 - - 8 4 - - S 1028,4 5 0 0,0
10.12.2018 19:00:00 9,5 7,4 - - 9 5 - - SSE 1028,5 8 0 0,0
10.12.2018 18:00:00 9,8 6,9 - - 5 3 - - S 1028,5 8 0 0,0
10.12.2018 17:00:00 10,1 7,8 - - 11 6 - - SW 1028,6 7 0 0,0
10.12.2018 16:00:00 10,4 8,1 - - 8 4 - - SW 1029,2 7 0 0,0
10.12.2018 15:00:00 10,7 7,9 - - 9 5 - - SW 1029,3 8 0 0,0
10.12.2018 14:00:00 10,7 7,6 - - 11 6 - - WSW 1029,7 8 12 0,0
10.12.2018 13:00:00 10,6 7,3 - - 11 6 - - WSW 1029,9 8 0 0,0
10.12.2018 12:00:00 10,5 7,1 - - 9 5 - - WSW 1030,4 8 0 0,0
10.12.2018 11:00:00 10,5 6,9 - - 9 5 - - SW 1031,0 8 18 0,0
10.12.2018 10:00:00 9,1 6,3 - - 8 4 - - SSW 1030,8 10 0 0,0
10.12.2018 09:00:00 8,9 5,9 11,4 11,4 5 3 - - W 1030,5 8 0 0,0
10.12.2018 08:00:00 8,9 5,6 - - 8 4 - - WNW 1030,3 8 0 0,0
10.12.2018 07:00:00 9,5 5,1 - - 13 7 - - WNW 1030,1 19 0 0,0
10.12.2018 06:00:00 9,1 4,9 - - 13 7 - - WNW 1030,1 15 0 0,0
10.12.2018 05:00:00 9,1 4,9 - - 13 7 - - WNW 1029,9 15 0 0,0
10.12.2018 04:00:00 8,8 4,3 - - 16 9 - - WNW 1029,8 18 0 0,0
10.12.2018 03:00:00 8,8 4,6 - - 13 7 - - WNW 1029,9 15 0 0,0
10.12.2018 02:00:00 9,1 3,8 - - 16 9 - - WNW 1029,5 19 0 0,0
10.12.2018 01:00:00 9,3 4,4 - - 21 11 - - WNW 1029,1 17 0 0,0
10.12.2018 00:00:00 9,4 4,4 - - 21 11 46 25 WNW 1029,1 20 - 0,0
09.12.2018 23:00:00 9,6 3,5 - - 26 14 - - WNW 1028,6 25 0 0,0
09.12.2018 22:00:00 9,8 3,7 - - 26 14 - - NW 1028,2 22 0 0,0
09.12.2018 21:00:00 9,9 5,0 - - 22 12 - - WNW 1027,9 18 0 0,0
09.12.2018 20:00:00 9,7 6,3 - - 26 14 - - WNW 1027,3 13 0 0,0
09.12.2018 19:00:00 9,5 6,3 - - 28 15 - - NW 1026,2 10 0 0,6
09.12.2018 18:00:00 10,0 6,2 - - 24 13 48 26 WNW 1025,6 2,5 0 0,0
09.12.2018 17:00:00 10,0 5,8 - - 28 15 - - WNW 1024,7 10 0 0,0
09.12.2018 16:00:00 10,1 6,1 - - 26 14 48 26 WNW 1023,7 10 0 0,0
09.12.2018 15:00:00 10,6 6,1 - - 29 16 54 29 WNW 1022,8 10 6 0,0
09.12.2018 14:00:00 10,3 6,4 - - 35 19 55 30 WNW 1021,8 12 0 0,2
09.12.2018 13:00:00 11,1 5,5 - - 35 19 59 32 NW 1020,9 12 12 0,0
09.12.2018 12:00:00 10,9 5,9 - - 39 21 57 31 WNW 1019,8 12 12 0,0
09.12.2018 11:00:00 10,7 6,5 - - 39 21 63 34 NW 1019,0 10 0 0,0
09.12.2018 10:00:00 10,9 6,1 - - 44 24 70 38 WNW 1017,2 10 0 0,0
09.12.2018 09:00:00 11,0 6,6 12,7 11,2 39 21 72 39 WNW 1015,5 8 0 0,0
09.12.2018 08:00:00 10,9 6,6 - - 48 26 80 43 WNW 1013,6 10 0 0,0
09.12.2018 07:00:00 10,7 7,0 - - 44 24 74 40 WNW 1012,6 10 0 0,0
09.12.2018 06:00:00 10,8 6,6 - - 48 26 80 43 W 1011,5 8 0 0,0
09.12.2018 05:00:00 10,6 6,4 - - 48 26 78 42 W 1010,7 10 0 0,2
09.12.2018 04:00:00 10,7 6,5 - - 46 25 74 40 W 1010,1 12 0 0,0
09.12.2018 03:00:00 10,7 6,1 - - 52 28 87 47 W 1009,6 10 0 0,0
09.12.2018 02:00:00 10,0 5,8 - - 52 28 93 50 W 1009,4 8 0 0,4
09.12.2018 01:00:00 10,1 5,4 - - 52 28 91 49 W 1009,3 8 0 0,0
09.12.2018 00:00:00 10,6 4,9 - - 48 26 78 42 W 1008,8 10 - 0,0
08.12.2018 23:00:00 10,4 4,4 - - 48 26 74 40 W 1008,6 12 0 0,0
08.12.2018 22:00:00 10,3 4,5 - - 48 26 87 47 W 1008,2 12 0 0,0
08.12.2018 21:00:00 10,6 5,3 - - 48 26 81 44 W 1008,1 8 0 0,0
08.12.2018 20:00:00 11,0 5,8 - - 48 26 74 40 W 1007,6 7 0 0,0
08.12.2018 19:00:00 10,4 6,1 - - 46 25 72 39 W 1007,4 8 0 0,0
08.12.2018 18:00:00 10,6 7,2 - - 46 25 70 38 W 1007,3 7 0 0,0
08.12.2018 17:00:00 11,2 7,9 - - 54 29 74 40 W 1007,0 8 0 0,0
08.12.2018 16:00:00 11,5 7,6 - - 50 27 74 40 W 1006,9 9 0 0,0
08.12.2018 15:00:00 12,0 8,7 - - 52 28 78 42 W 1007,0 11 0 0,0
08.12.2018 14:00:00 12,4 9,8 - - 46 25 68 37 W 1007,2 12 0 0,0
08.12.2018 13:00:00 12,3 10,0 - - 48 26 67 36 W 1007,6 12 0 0,0
08.12.2018 12:00:00 12,1 10,8 - - 42 23 68 37 WSW 1008,2 12 0 0,2
08.12.2018 11:00:00 11,5 10,8 - - 37 20 57 31 SW 1009,3 4,0 0 0,0
08.12.2018 10:00:00 10,8 10,2 - - 34 18 55 30 WSW 1010,2 4,4 0 0,4
08.12.2018 09:00:00 10,5 9,6 12,4 11,2 35 19 54 29 WSW 1011,3 1,9 0 0,0
08.12.2018 08:00:00 10,4 8,9 - - 34 18 52 28 WSW 1012,1 6 0 0,2
08.12.2018 07:00:00 10,5 7,7 - - 28 15 54 29 WSW 1013,0 8 0 0,0
08.12.2018 06:00:00 10,6 6,3 - - 37 20 57 31 W 1013,1 10 0 0,0
08.12.2018 05:00:00 10,4 6,2 - - 39 21 57 31 W 1013,3 11 0 0,0
08.12.2018 04:00:00 10,3 5,8 - - 41 22 63 34 W 1013,2 12 0 0,0
08.12.2018 03:00:00 10,1 5,4 - - 39 21 70 38 W 1013,0 12 0 0,0
08.12.2018 02:00:00 10,1 5,4 - - 41 22 67 36 W 1012,7 10 0 0,0
08.12.2018 01:00:00 10,0 5,5 - - 46 25 68 37 W 1012,6 14 0 0,0
08.12.2018 00:00:00 10,5 4,0 - - 48 26 76 41 W 1012,6 12 - 0,0
07.12.2018 23:00:00 10,3 4,4 - - 42 23 67 36 W 1012,3 12 0 0,0
07.12.2018 22:00:00 10,0 4,8 - - 41 22 67 36 W 1012,3 18 0 0,0
07.12.2018 21:00:00 9,5 5,2 - - 37 20 65 35 W 1012,1 22 0 0,0
07.12.2018 20:00:00 9,8 4,1 - - 42 23 59 32 W 1012,0 15 0 0,0
07.12.2018 19:00:00 9,6 4,2 - - 41 22 63 34 W 1011,3 13 0 0,0
07.12.2018 18:00:00 9,3 4,4 - - 42 23 65 35 W 1011,1 12 0 0,2
07.12.2018 17:00:00 8,0 4,5 - - 29 16 76 41 W 1010,4 7 0 0,8
07.12.2018 16:00:00 8,4 2,8 - - 41 22 67 36 W 1009,8 28 18 0,0
07.12.2018 15:00:00 8,7 3,2 - - 44 24 72 39 W 1009,2 13 48 0,0
07.12.2018 14:00:00 7,4 4,5 - - 48 26 78 42 W 1009,0 12 24 0,4
07.12.2018 13:00:00 9,0 4,0 - - 34 18 72 39 W 1008,3 7 30 0,0
07.12.2018 12:00:00 6,4 4,6 - - 31 17 81 44 WNW 1008,2 10 6 1,4
07.12.2018 11:00:00 9,3 2,5 - - 44 24 76 41 W 1007,8 20 42 0,6
07.12.2018 10:00:00 9,5 2,7 - - 35 19 67 36 W 1006,9 2,5 12 0,0
07.12.2018 09:00:00 9,5 3,7 12,9 11,2 35 19 63 34 W 1006,3 18 0 0,0
07.12.2018 08:00:00 10,0 4,5 - - 34 18 54 29 WNW 1005,8 15 0 0,0
07.12.2018 07:00:00 10,2 7,8 - - 31 17 48 26 W 1005,3 10 0 0,6
07.12.2018 06:00:00 10,0 8,7 - - 26 14 68 37 W 1004,7 5 0 1,2
07.12.2018 05:00:00 12,2 11,3 - - 39 21 54 29 WSW 1004,9 4,9 0 2,6
07.12.2018 04:00:00 12,1 11,7 - - 37 20 63 34 SW 1005,9 2,0 0 3,6
07.12.2018 03:00:00 12,1 11,7 - - 37 20 63 34 SW 1007,3 2,0 0 2,8
07.12.2018 02:00:00 12,1 11,6 - - 39 21 65 35 SW 1008,4 2,0 0 0,4
07.12.2018 01:00:00 12,2 11,6 - - 44 24 76 41 SW 1010,1 7 0 0,0
07.12.2018 00:00:00 12,1 12,0 - - 42 23 65 35 SSW 1011,2 2,5 - 0,0
06.12.2018 23:00:00 12,2 12,1 - - 35 19 55 30 SW 1012,1 1,0 0 0,2
06.12.2018 22:00:00 12,2 12,1 - - 35 19 55 30 SSW 1013,0 0,3 0 0,2
06.12.2018 21:00:00 12,2 12,2 - - 29 16 - - SW 1013,9 1,5 0 0,0
06.12.2018 20:00:00 12,3 12,2 - - 28 15 48 26 SW 1014,6 3,0 0 0,2
06.12.2018 19:00:00 12,3 12,2 - - 28 15 - - SW 1015,1 2,5 0 0,0
06.12.2018 18:00:00 12,4 12,1 - - 28 15 - - SW 1015,4 - 0 0,0
06.12.2018 17:00:00 12,4 12,2 - - 28 15 46 25 SW 1015,7 3,0 0 0,0
06.12.2018 16:00:00 12,3 12,1 - - 28 15 46 25 SW 1015,6 1,5 0 0,0
06.12.2018 15:00:00 12,3 12,0 - - 28 15 46 25 SW 1015,6 1,5 0 0,2
06.12.2018 14:00:00 12,3 11,9 - - 31 17 50 27 SW 1015,8 5 0 0,2
06.12.2018 13:00:00 12,2 11,8 - - 31 17 50 27 SW 1016,2 3,0 0 0,2
06.12.2018 12:00:00 12,1 11,6 - - 28 15 48 26 SW 1016,9 2,0 0 0,0
06.12.2018 11:00:00 12,1 11,0 - - 29 16 - - SW 1017,3 6 0 0,0
06.12.2018 10:00:00 11,9 10,8 - - 28 15 - - SW 1016,8 7 0 0,0
06.12.2018 09:00:00 11,6 10,7 12,5 11,2 24 13 - - SW 1016,8 5 0 0,0
06.12.2018 08:00:00 11,3 10,3 - - 21 11 - - SW 1016,4 8 0 0,0
06.12.2018 07:00:00 11,1 9,9 - - 18 10 - - SW 1016,4 12 0 0,0
06.12.2018 06:00:00 11,0 10,7 - - 16 9 - - SW 1015,7 5 0 0,2
06.12.2018 05:00:00 10,9 10,6 - - 18 10 - - WSW 1015,5 4,5 0 0,0
06.12.2018 04:00:00 11,1 10,7 - - 16 9 - - WSW 1015,7 5 0 0,0
06.12.2018 03:00:00 10,8 10,7 - - 13 7 - - SW 1015,4 4,0 0 0,0
06.12.2018 02:00:00 11,0 10,8 - - 16 9 - - SW 1014,7 6 0 0,2
06.12.2018 01:00:00 11,2 11,0 - - 21 11 - - WSW 1015,0 2,5 0 0,2
06.12.2018 00:00:00 11,3 10,8 - - 16 9 - - WSW 1013,9 4,0 - 0,0
05.12.2018 23:00:00 11,4 10,9 - - 15 8 - - WSW 1013,2 6 0 0,0
05.12.2018 22:00:00 11,6 11,2 - - 11 6 - - WSW 1012,8 5 0 0,0
05.12.2018 21:00:00 11,9 11,5 - - 9 5 - - W 1011,9 10 0 0,0
05.12.2018 20:00:00 11,9 11,5 - - 9 5 - - SW 1011,7 20 0 0,0
05.12.2018 19:00:00 12,0 11,7 - - 11 6 - - WSW 1010,8 7 0 0,2
05.12.2018 18:00:00 11,9 11,5 - - 13 7 - - SSW 1010,2 3,0 0 0,0
05.12.2018 17:00:00 11,7 11,1 - - 11 6 - - SSW 1009,5 5 0 0,0
05.12.2018 16:00:00 12,6 11,9 - - 16 9 - - SW 1009,4 9 0 0,0
05.12.2018 15:00:00 12,6 12,0 - - 15 8 46 25 WSW 1009,2 8 0 0,0
05.12.2018 14:00:00 12,8 12,2 - - 15 8 - - SW 1009,5 4,0 0 0,0
05.12.2018 13:00:00 12,7 12,6 - - 24 13 - - SW 1009,6 6 0 0,2
05.12.2018 12:00:00 12,6 12,4 - - 28 15 48 26 SW 1009,6 4,0 0 1,8
05.12.2018 11:00:00 12,6 12,3 - - 31 17 59 32 SSW 1010,5 3,0 0 3,8
05.12.2018 10:00:00 12,5 12,2 - - 31 17 50 27 S 1010,3 1,8 0 4,0
05.12.2018 09:00:00 12,4 12,1 11,7 11,2 29 16 55 30 S 1010,9 2,5 0 2,6
05.12.2018 08:00:00 12,3 12,0 - - 34 18 52 28 S 1011,6 1,6 0 0,8
05.12.2018 07:00:00 12,3 11,8 - - 34 18 57 31 S 1011,7 2,5 0 0,4

tt = Température de l'air
td = dewpoint
tt -20cm = Température de l'air -20cm
tt -100cm = Température de l'air -100cm
ff = Vitesse du vent
fx = gusts
dd = Direction du vent
ppp = reduced air pressure
vv = visibility
sd = Ensoleillement
rr = Quantités de précipitations

stations d'obs. à proximité